CZ-12 R/B, 67531

Orbit data source: Space-Track

CZ-12 R/B, 67531 is space debris in LEO originally from a launch on Mon, 19 Jan 2026 UTC launched from the Wenchang Satellite Launch Center (WSC). Debris objects in space refer to the collection of defunct objects orbiting the Earth. Examples of debris include non-operational satellites, rocket bodies, and fragments generated from explosions, collisions, or faulty payload assembly.

Loading next visibility...
Identifier
67531, 2026-013K
Orbit
LEO
Country
Flag of CNCN / PRC
Related business
Manufacturer
SAST
Mission
Spacecraft
Bus & Motor
CZ-12 STAGE 2, YF-115
Mass
~6,000 kg wet, ~6,000 kg dry
Launch date (UTC)
2026-01-19 (5 months ago)
Launch vehicle
Unknown
Launch site
Wenchang Satellite Launch Center (WSC)
Object type
Payload
Rocket body
Debris
Shape & HBR
Cyl, 4.7 m
Radar Cross Section
35.516 m², Large (>1 m²)

Expand to show TLE details & history
Last TLE update: 23 hours ago

TLE from 23 hours ago
0 CZ-12 R/B
1 67531U 26013K   26163.14302411  .00000026  00000-0  91720-4 0  9999
2 67531  49.9952 308.8297 0068578 262.1115  97.2006 14.14473057 20351
Epoch: 2026-06-12T03:25Z
TLE epoch observation values (Epoch: 2026-06-12T03:25:57.283Z)
Latitude
0.00001°
Longitude
-3.13567°
Altitude
851.174 km
Speed
7.425 km/s
True Right ascension
20h 35m 19s
True Declination
0° 00' 00"
Sunlit
Object was in full shadow at epoch
Visualization orbit readout
Latitude
Unknown
Longitude
Unknown
Altitude
Unknown
Speed
Unknown
Apparent Right ascension
Unknown
Apparent Declination
Unknown
Sunlit
N/A
Visualization observer readout
Local Sidereal Time
12:49:15
Azimuth
Unknown
Elevation
Unknown
Doppler factor
Unknown
Orbital elements
Apogee altitude
894.375 km
Perigee altitude
795.307 km
Semi-major axis
7,222.978 km
Eccentricity
0.00686
Inclination
49.9952°
RAAN
308.8297°
Arg. of periapsis
262.1115°
True anomaly
97.97939°
Mean anomaly
97.2006°
Eccentric anomaly
97.59008°
Mean motion
3.53565 °/min
Orbital period
101.82 mins
BSTAR
0.00009172
Loading maneuver chart data...
Computing Atmospheric mass density...
Loading historical data...
Loading historical data...
Loading historical data...
Loading historical data...
Loading historical data...
Loading historical data...
Loading historical data...

Documentation

Showing up to 5 results
|